This demonstration page uses our WeatherBlox Daily Observations layout. Learn more.

Left ArrowRight Arrow

41.86663, -103.66717

Hourly Observations for November 24, 2016

Temp ( °F °C ) Dew Point ( °F °C ) Humidity (%) Winds ( mph kmh ) Pressure ( in mb ) Visibility ( mi km ) Precip ( " mm )
12:53 am 00:53 Clear 27 -2.8 22 -5.6 81 81 ESE 8 13 29.95 1014 10 16 N/A
1:53 am 01:53 Clear 25 -3.9 20 -6.7 81 81 E 7 11 29.97 1015 10 16 N/A
2:53 am 02:53 Clear 26 -3.3 22 -5.6 84 84 N 3 6 29.98 1015 10 16 N/A
3:53 am 03:53 Clear 23 -5 20 -6.7 88 88 W 6 9 30.00 1016 10 16 N/A
4:53 am 04:53 Clear 24 -4.4 20 -6.7 84 84 WNW 7 11 30.03 1017 10 16 N/A
5:53 am 05:53 Clear 25 -3.9 21 -6.1 85 85 NW 6 9 30.07 1018 10 16 N/A
6:53 am 06:53 Mostly Cloudy 28 -2.2 24 -4.4 85 85 WNW 13 20 30.13 1020 10 16 N/A
7:53 am 07:53 Cloudy 35 1.7 30 -1.1 82 82 W 17 28 30.16 1021 10 16 N/A
8:53 am 08:53 Cloudy 40 4.4 31 -0.6 70 70 WNW 17 28 30.19 1023 10 16 N/A
9:53 am 09:53 Cloudy 41 5 30 -1.1 65 65 WNW 23 37 30.27 1025 10 16 N/A
10:53 am 10:53 Cloudy with Light Rain 39 3.9 32 undefined 76 76 WNW 20 31 30.30 1026 10 16 N/A
11:53 am 11:53 Partly Cloudy 43 6.1 29 -1.7 58 58 NW 23 37 30.29 1026 10 16 N/A
12:53 pm 12:53 Mostly Sunny 46 7.8 27 -2.8 47 47 NW 23 37 30.27 1025 10 16 N/A
1:53 pm 13:53 Mostly Sunny 47 8.3 26 -3.3 44 44 NW 22 35 30.27 1025 10 16 N/A
2:53 pm 14:53 Sunny 45 7.2 23 -5 42 42 NW 16 26 30.30 1026 10 16 N/A
3:53 pm 15:53 Sunny 42 5.6 22 -5.6 45 45 NW 12 19 30.34 1027 10 16 N/A
4:53 pm 16:53 Mostly Clear 35 1.7 22 -5.6 59 59 NW 8 13 30.38 1029 10 16 N/A
5:53 pm 17:53 Clear 33 0.6 20 -6.7 58 58 WSW 7 11 30.41 1030 10 16 N/A
6:53 pm 18:53 Clear 29 -1.7 20 -6.7 69 69 WNW 6 9 30.41 1030 10 16 N/A
7:53 pm 19:53 Clear 24 -4.4 18 -7.8 77 77 NNW 6 9 30.42 1030 10 16 N/A
8:53 pm 20:53 Clear 23 -5 17 -8.3 78 78 N 7 11 30.41 1030 10 16 N/A
9:53 pm 21:53 Clear 25 -4 18 -8 74 74 N N/A 30.50 1033 10 16 N/A
10:53 pm 22:53 Clear 19 -7.2 13 -10.6 77 77 N N/A 30.43 1031 10 16 N/A
11:53 pm 23:53 Clear 19 -7.2 13 -10.6 77 77 N 3 6 30.42 1030 10 16 N/A

Powered by AerisWeather